When you browse on this site, cookies collect data to enhance your experience and personalize the content and advertising you see.
Visit our Privacy Policy to learn more. By continuing to use the site, you agree to this use of cookies and data.
  • In Spain
  • List of Countries
  • For 7 days
  • Water Temperature
  • Satellite Maps
  • Weather Map
  • Weather Widgets
  • user-avatar
    Login

    Hourly Weather Lattakia

    Today, 14 December, Friday

    Time Temperature Precipitation Wind Pressure Humidity
    00:00 +13°C° 0 mm 2 mps 766 mmHg 62%
    01:00 +12°C° 0 mm 2 mps 766 mmHg 64%
    02:00 +13°C° 0 mm 2 mps 766 mmHg 62%
    03:00 +12°C° 0 mm 2 mps 766 mmHg 64%
    04:00 +12°C° 0 mm 2 mps 766 mmHg 66%
    05:00 +12°C° 0 mm 2 mps 766 mmHg 67%
    06:00 +13°C° 0 mm 2 mps 767 mmHg 67%
    07:00 +13°C° 0 mm 2 mps 767 mmHg 67%
    08:00 +13°C° 0 mm 3 mps 767 mmHg 66%
    09:00 +14°C° 0 mm 3 mps 767 mmHg 61%
    10:00 +16°C° 0 mm 3 mps 767 mmHg 57%
    11:00 +17°C° 0 mm 3 mps 767 mmHg 52%
    12:00 +17°C° 0 mm 2 mps 767 mmHg 52%
    13:00 +18°C° 0 mm 2 mps 766 mmHg 52%
    14:00 +18°C° 0 mm 2 mps 766 mmHg 52%
    15:00 +17°C° 0 mm 2 mps 766 mmHg 56%
    16:00 +16°C° 0 mm 1 mps 766 mmHg 59%
    17:00 +15°C° 0 mm 1 mps 766 mmHg 63%
    18:00 +15°C° 0 mm 1 mps 767 mmHg 64%
    19:00 +15°C° 0 mm 2 mps 767 mmHg 65%
    20:00 +14°C° 0 mm 2 mps 767 mmHg 66%
    21:00 +14°C° 0 mm 2 mps 767 mmHg 66%
    22:00 +14°C° 0 mm 2 mps 767 mmHg 66%
    23:00 +14°C° 0 mm 2 mps 767 mmHg 66%

    Tomorrow, 15 December, Saturday

    Time Temperature Precipitation Wind Pressure Humidity
    00:00 +14°C° 0 mm 2 mps 767 mmHg 66%
    01:00 +12°C° 0 mm 3 mps 767 mmHg 66%
    02:00 +12°C° 0 mm 3 mps 767 mmHg 66%
    03:00 +12°C° 0 mm 3 mps 767 mmHg 67%
    04:00 +12°C° 0 mm 3 mps 766 mmHg 68%
    05:00 +12°C° 0 mm 4 mps 766 mmHg 68%
    06:00 +12°C° 0 mm 4 mps 766 mmHg 69%
    07:00 +12°C° 0 mm 4 mps 766 mmHg 69%
    08:00 +13°C° 0 mm 4 mps 767 mmHg 70%
    09:00 +14°C° 0 mm 5 mps 766 mmHg 65%
    10:00 +15°C° 0 mm 5 mps 766 mmHg 61%
    11:00 +17°C° 0 mm 5 mps 766 mmHg 57%
    12:00 +17°C° 0 mm 5 mps 766 mmHg 55%
    13:00 +17°C° 0 mm 5 mps 765 mmHg 54%
    14:00 +19°C° 0 mm 5 mps 765 mmHg 53%
    15:00 +17°C° 0 mm 5 mps 765 mmHg 57%
    16:00 +16°C° 0 mm 5 mps 764 mmHg 60%
    17:00 +15°C° 0 mm 5 mps 764 mmHg 64%
    18:00 +15°C° 0 mm 6 mps 764 mmHg 65%
    19:00 +14°C° 0 mm 6 mps 764 mmHg 66%
    20:00 +14°C° 0 mm 6 mps 765 mmHg 67%
    21:00 +14°C° 0 mm 6 mps 764 mmHg 67%
    22:00 +13°C° 0 mm 6 mps 764 mmHg 68%
    23:00 +13°C° 0 mm 6 mps 764 mmHg 68%

    Day after tomorrow, 16 December, Sunday

    Time Temperature Precipitation Wind Pressure Humidity
    00:00 +13°C° 0 mm 6 mps 764 mmHg 69%
    01:00 +13°C° 0 mm 6 mps 764 mmHg 70%
    02:00 +11°C° 0 mm 6 mps 763 mmHg 71%
    03:00 +11°C° 0 mm 6 mps 763 mmHg 71%
    04:00 +11°C° 0 mm 6 mps 763 mmHg 72%
    05:00 +10°C° 0 mm 6 mps 762 mmHg 73%
    06:00 +11°C° 0 mm 7 mps 762 mmHg 72%
    07:00 +11°C° 0 mm 7 mps 763 mmHg 72%
    08:00 +11°C° 0 mm 7 mps 763 mmHg 71%
    09:00 +14°C° 0 mm 7 mps 762 mmHg 67%
    10:00 +15°C° 0 mm 7 mps 762 mmHg 63%
    11:00 +17°C° 0 mm 7 mps 762 mmHg 59%
    12:00 +17°C° 0 mm 7 mps 761 mmHg 58%
    13:00 +18°C° 0 mm 7 mps 761 mmHg 56%
    14:00 +20°C° 0 mm 6 mps 760 mmHg 54%
    15:00 +18°C° 0 mm 7 mps 760 mmHg 57%
    16:00 +17°C° 0 mm 7 mps 760 mmHg 60%
    17:00 +16°C° 0 mm 7 mps 760 mmHg 63%
    18:00 +15°C° 0 mm 7 mps 761 mmHg 64%
    19:00 +15°C° 0 mm 7 mps 761 mmHg 65%
    20:00 +15°C° 0 mm 7 mps 761 mmHg 67%
    21:00 +14°C° 0 mm 7 mps 761 mmHg 69%
    22:00 +14°C° 0 mm 6 mps 761 mmHg 71%
    23:00 +14°C° 0 mm 6 mps 761 mmHg 73%

    17 December, Monday

    Time Temperature Precipitation Wind Pressure Humidity
    00:00 +13°C° 0 mm 6 mps 761 mmHg 75%
    01:00 +13°C° 0 mm 6 mps 761 mmHg 77%
    02:00 +13°C° 0 mm 6 mps 760 mmHg 79%
    03:00 +13°C° 0.1 mm 6 mps 760 mmHg 80%
    04:00 +11°C° 0.1 mm 6 mps 760 mmHg 82%
    05:00 +11°C° 0.1 mm 6 mps 760 mmHg 83%
    06:00 +13°C° 0 mm 6 mps 760 mmHg 82%
    07:00 +13°C° 0 mm 6 mps 760 mmHg 82%
    08:00 +13°C° 0 mm 6 mps 761 mmHg 81%
    09:00 +14°C° 0 mm 6 mps 760 mmHg 78%
    10:00 +15°C° 0 mm 6 mps 760 mmHg 75%
    11:00 +15°C° 0 mm 5 mps 760 mmHg 72%
    12:00 +16°C° 0.1 mm 5 mps 760 mmHg 71%
    13:00 +17°C° 0.1 mm 4 mps 759 mmHg 69%
    14:00 +17°C° 0.1 mm 4 mps 759 mmHg 68%
    15:00 +15°C° 0.3 mm 4 mps 759 mmHg 71%
    16:00 +14°C° 0.3 mm 3 mps 760 mmHg 74%
    17:00 +14°C° 0.3 mm 3 mps 760 mmHg 77%
    18:00 +13°C° 0.2 mm 3 mps 760 mmHg 79%
    19:00 +13°C° 0.2 mm 4 mps 761 mmHg 81%
    20:00 +13°C° 0.2 mm 4 mps 761 mmHg 83%
    21:00 +12°C° 0.1 mm 4 mps 761 mmHg 83%
    22:00 +12°C° 0.1 mm 4 mps 761 mmHg 84%
    23:00 +12°C° 0.1 mm 4 mps 761 mmHg 84%

    18 December, Tuesday

    Time Temperature Precipitation Wind Pressure Humidity
    00:00 +12°C° 0.1 mm 3 mps 761 mmHg 84%
    01:00 +12°C° 0.1 mm 3 mps 761 mmHg 84%
    02:00 +12°C° 0.1 mm 3 mps 761 mmHg 84%
    03:00 +12°C° 0.2 mm 3 mps 761 mmHg 83%
    04:00 +13°C° 0.2 mm 2 mps 761 mmHg 83%
    05:00 +13°C° 0.2 mm 2 mps 761 mmHg 83%
    06:00 +13°C° 0.2 mm 2 mps 762 mmHg 81%
    07:00 +14°C° 0.2 mm 2 mps 762 mmHg 80%
    08:00 +14°C° 0.2 mm 3 mps 762 mmHg 78%
    09:00 +16°C° 0.2 mm 3 mps 762 mmHg 74%
    10:00 +17°C° 0.2 mm 3 mps 762 mmHg 70%
    11:00 +18°C° 0.2 mm 3 mps 762 mmHg 65%
    12:00 +18°C° 0.3 mm 3 mps 762 mmHg 65%
    13:00 +18°C° 0.3 mm 3 mps 761 mmHg 65%
    14:00 +18°C° 0.3 mm 3 mps 761 mmHg 65%
    15:00 +18°C° 0.2 mm 3 mps 761 mmHg 70%
    16:00 +17°C° 0.2 mm 3 mps 762 mmHg 74%
    17:00 +16°C° 0.2 mm 3 mps 762 mmHg 79%
    18:00 +16°C° 0.2 mm 3 mps 762 mmHg 80%
    19:00 +14°C° 0.2 mm 3 mps 762 mmHg 81%
    20:00 +14°C° 0.2 mm 3 mps 763 mmHg 82%
    21:00 +14°C° 0.4 mm 3 mps 763 mmHg 82%
    22:00 +14°C° 0.4 mm 3 mps 763 mmHg 82%
    23:00 +14°C° 0.4 mm 3 mps 763 mmHg 83%

    19 December, Wednesday

    Time Temperature Precipitation Wind Pressure Humidity
    00:00 +14°C° 0.4 mm 3 mps 763 mmHg 82%
    01:00 +13°C° 0.4 mm 3 mps 762 mmHg 82%
    02:00 +13°C° 0.4 mm 3 mps 762 mmHg 82%
    03:00 +13°C° 0.4 mm 3 mps 762 mmHg 81%
    04:00 +13°C° 0.4 mm 4 mps 762 mmHg 80%
    05:00 +13°C° 0.4 mm 4 mps 762 mmHg 79%
    06:00 +13°C° 0.2 mm 4 mps 762 mmHg 78%
    07:00 +13°C° 0.2 mm 5 mps 762 mmHg 76%
    08:00 +14°C° 0.2 mm 5 mps 762 mmHg 75%
    09:00 +14°C° 1.3 mm 5 mps 762 mmHg 72%
    10:00 +15°C° 1.3 mm 6 mps 762 mmHg 70%
    11:00 +16°C° 1.3 mm 6 mps 761 mmHg 67%
    12:00 +16°C° 2.1 mm 6 mps 761 mmHg 67%
    13:00 +16°C° 2.1 mm 6 mps 760 mmHg 67%
    14:00 +17°C° 2.1 mm 6 mps 760 mmHg 66%
    15:00 +16°C° 1.2 mm 5 mps 760 mmHg 70%
    16:00 +15°C° 1.2 mm 5 mps 759 mmHg 74%
    17:00 +14°C° 1.2 mm 5 mps 759 mmHg 78%
    18:00 +14°C° 0.6 mm 5 mps 759 mmHg 79%
    19:00 +14°C° 0.6 mm 5 mps 760 mmHg 80%
    20:00 +14°C° 0.6 mm 5 mps 760 mmHg 82%
    21:00 +14°C° 0.7 mm 4 mps 760 mmHg 82%
    22:00 +14°C° 0.7 mm 4 mps 759 mmHg 83%
    23:00 +14°C° 0.7 mm 4 mps 759 mmHg 83%
    Show more